#timestamp,LO_Frequency,Hit 
1501455615.8,286047003.3,N
1501455635.6,286047003.1,N
1501455655.5,286047003.2,N
1501455675.3,286047004.2,N
1501455695.1,286047003.1,N
1501455715.9,286047004.1,N
1501455735.7,286047005.8,N
1501455755.5,286047006.0,N
1501455775.4,286047004.2,N
1501455795.2,286047001.5,N
1501455815.0,286047003.0,N
1501455815.9,286047003.0,N
1501455835.8,286047003.5,N
1501455855.6,286047004.0,N
1501455875.4,286047004.2,N
1501455895.2,286047004.2,N
1501455915.1,286047003.7,N
1501455916.0,286047003.7,N
1501455935.8,286047001.4,N
1501455955.6,286047002.2,N
1501455975.5,286047004.3,N
1501455995.3,286047004.0,N
1501456015.1,286047001.8,N
1501456035.9,286047002.4,N
1501456055.7,286046999.8,N
1501456075.5,286047002.2,N
1501456095.4,286047002.6,N
1501456115.2,286047000.2,N
1501456135.0,286047001.5,N
1501456135.9,286047001.5,N
1501456155.8,286047001.4,N
1501456175.6,286047002.6,N
1501456195.4,286047001.4,N
1501456215.2,286047004.1,N
1501456235.1,286047004.1,N
1501456236.0,286047004.1,N
1501456255.8,286047006.0,N
1501456275.6,286047003.3,N
1501456295.5,286047003.6,N
1501456315.3,286047003.3,N
1501456335.1,286047003.5,N
1501456355.9,286047003.4,N
1501456375.7,286047005.7,N
1501456395.5,286047005.8,N
1501456415.4,286047004.1,N
1501456435.2,286047003.0,N
1501456455.0,286047004.1,N
1501456455.9,286047004.1,N
1501456475.7,286047004.1,N
1501456495.6,286047001.3,N
1501456515.4,286047006.0,N
1501456535.2,286047004.8,N
1501456555.1,286047005.7,N
1501456556.0,286047005.7,N
1501456575.8,286047003.1,N
1501456595.6,286047002.9,N
1501456615.5,286047004.8,N
1501456635.3,286047003.3,N
1501456655.1,286047005.8,N
1501456675.9,286047005.8,N
1501456695.7,286047006.8,N
1501456715.5,286047007.5,N
1501456735.4,286047007.0,N
1501456755.2,286047007.2,N
1501456775.0,286047007.3,N
1501456775.9,286047007.3,N
1501456795.8,286047004.6,N
1501456815.6,286047006.5,N
1501456835.4,286047004.6,N
1501456855.2,286047007.1,N
1501456875.1,286047007.2,N
1501456876.0,286047007.2,N
1501456895.8,286047007.1,N
1501456915.6,286047007.4,N
1501456935.5,286047005.8,N
1501456955.3,286047004.9,N
1501456975.1,286047003.3,N
1501456995.9,286047004.4,N
1501457015.7,286047004.4,N
1501457035.5,286047002.9,N
1501457055.4,286047003.6,N
1501457075.2,286047004.1,N
1501457095.0,286047003.7,N
1501457095.9,286047003.7,N
1501457115.8,286047005.3,N
1501457135.6,286047004.8,N
1501457155.4,286047004.7,N
1501457175.2,286047005.6,N
1501457195.1,286047005.6,N
1501457196.0,286047005.6,N
1501457215.8,286047005.0,N
1501457235.6,286047007.2,N
1501457255.5,286047006.2,N
1501457275.3,286047007.0,N
1501457295.1,286047006.8,N
1501457315.9,286047007.1,N
1501457335.7,286047007.5,N
1501457355.5,286047009.2,Y
1501457375.4,286047007.0,N
1501457395.2,286047007.2,N
1501457415.0,286047005.5,N
1501457415.9,286047005.5,N
1501457435.8,286047002.9,N
1501457455.6,286047006.8,N
1501457475.4,286047008.4,N
1501457495.2,286047006.7,N
1501457515.1,286047004.7,N
1501457516.0,286047004.7,N
1501457535.8,286047007.3,N
1501457555.6,286047007.0,N
1501457575.5,286047007.2,N
1501457595.3,286047005.0,N
1501457615.1,286047007.1,N
1501457635.9,286047005.4,N
1501457655.7,286047005.1,N
1501457675.5,286047005.5,N
1501457695.4,286047003.1,N
1501457715.2,286047005.3,N
1501457735.0,286047002.9,N
1501457735.9,286047002.9,N
1501457755.8,286047005.6,N
1501457775.6,286047005.1,N
1501457795.4,286047007.0,N
1501457815.2,286047006.7,N
1501457835.1,286047002.9,N
1501457836.0,286047002.9,N
1501457855.8,286047003.5,N
1501457875.6,286047005.5,N
1501457895.5,286047005.5,N
1501457915.3,286047007.2,N
1501457935.1,286047004.8,N
1501457955.9,286047007.6,N
1501457975.7,286047005.4,N
1501457995.5,286047005.3,N
1501458015.4,286047005.4,N
1501458035.2,286047004.5,N
1501458055.0,286047006.7,N
1501458055.9,286047006.7,N
1501458075.7,286047005.4,N
1501458095.6,286047005.0,N
1501458115.4,286047009.2,Y
1501458135.2,286047004.5,N
1501458155.1,286047004.8,N
1501458156.0,286047004.8,N
1501458175.8,286047007.2,N
1501458195.6,286047005.7,N
1501458215.5,286047003.6,N
1501458235.3,286047005.3,N
1501458255.1,286047004.3,N
1501458275.9,286047005.5,N
1501458295.7,286047005.7,N
1501458315.5,286047004.8,N
1501458335.4,286047005.3,N
1501458355.2,286047005.1,N
1501458375.0,286047005.8,N
1501458375.9,286047005.8,N
1501458395.8,286047003.4,N
1501458415.6,286047003.3,N
1501458435.4,286047004.2,N
1501458455.2,286047003.9,N
1501458475.1,286047003.5,N
1501458476.0,286047003.5,N
1501458495.8,286047002.5,N
1501458515.6,286047002.4,N
1501458535.5,286047001.8,N
1501458555.3,286046999.8,N
1501458575.1,286047004.4,N
1501458595.9,286047004.0,N
1501458615.7,286047002.1,N
1501458635.5,286047004.0,N
1501458655.4,286047003.8,N
1501458675.2,286047004.3,N
1501458695.0,286047003.6,N
1501458695.9,286047003.6,N
1501458715.8,286047004.3,N
1501458735.6,286047001.8,N
1501458755.4,286047003.8,N
1501458775.2,286047004.3,N
1501458795.1,286047004.1,N
1501458796.0,286047004.1,N
1501458815.8,286047001.3,N
1501458835.6,286047001.3,N
1501458855.5,286047003.5,N
1501458875.3,286047004.4,N
1501458895.1,286047003.8,N
1501458915.9,286047003.1,N
1501458935.7,286047004.2,N
1501458955.5,286047003.0,N
1501458975.4,286047003.9,N
1501458995.2,286047004.0,N
1501459015.0,286047003.0,N
1501459015.9,286047003.0,N
1501459035.8,286047006.0,N
1501459055.6,286047002.9,N
1501459075.4,286047005.2,N
1501459095.2,286047007.6,N
1501459115.1,286047005.8,N
1501459116.0,286047005.8,N
1501459135.8,286047007.5,N
1501459155.6,286047006.8,N
1501459175.5,286047006.0,N
1501459195.3,286047005.3,N
